Location: Newark
(23.3970°S, 47.6010°W)
Time: 22:55:29
(UTC+00:00)

deb Explorer IX - All Passes

Search period start: 18 February 2020 00:00
Search period end: 28 February 2020 00:00
Orbit: 549 x 1099 km, 38.8° (Epoch: 18 February)

Date Brightness Start Highest point End Pass type
(mag) Time Alt. Az. Time Alt. Az. Time Alt. Az.
18 Feb - 01:03:49 10° NW 01:10:30 58° NE 01:17:41 10° ESE night (unlit)
18 Feb - 02:51:18 10° W 02:58:11 47° SSW 03:05:11 10° SE night (unlit)
18 Feb - 04:41:07 10° WSW 04:46:53 24° S 04:52:28 10° SE visible
18 Feb - 06:30:29 10° SW 06:36:02 24° S 06:41:09 10° ESE visible
18 Feb - 08:18:07 10° SW 08:24:34 47° SSE 08:30:09 10° E visible
18 Feb - 10:05:57 10° WSW 10:11:47 44° NW 10:16:46 10° NNE daylight
18 Feb - 22:59:28 10° NNE 23:01:25 11° NE 23:03:25 10° ENE visible
19 Feb - 00:41:26 10° NW 00:47:59 58° NE 00:55:09 10° ESE visible
19 Feb - 02:28:54 10° W 02:35:41 46° SSW 02:42:42 10° SE night (unlit)
19 Feb - 04:18:39 10° WSW 04:24:25 24° S 04:30:05 10° SE visible
19 Feb - 06:07:55 10° SW 06:13:36 24° S 06:18:53 10° ESE visible
19 Feb - 07:55:32 10° SW 08:02:09 48° SSE 08:07:55 10° E visible
19 Feb - 09:43:25 10° WSW 09:49:24 44° NW 09:54:32 10° NNE daylight
19 Feb - 22:37:09 10° NNE 22:38:59 11° NE 22:40:51 10° ENE visible
20 Feb - 00:19:05 10° NW 00:25:30 59° NE 00:32:37 10° ESE visible
20 Feb - 02:06:31 10° W 02:13:11 45° SSW 02:20:12 10° SE night (unlit)
20 Feb - 03:56:11 10° WSW 04:01:57 24° S 04:07:40 10° SE visible
20 Feb - 05:45:22 10° SW 05:51:09 25° S 05:56:36 10° ESE visible
20 Feb - 07:32:57 10° SW 07:39:44 50° SSE 07:45:40 10° E visible
20 Feb - 09:20:52 10° WSW 09:27:00 44° NW 09:32:17 10° NNE daylight
20 Feb - 22:14:52 10° NNE 22:16:33 11° NE 22:18:16 10° ENE visible
20 Feb - 23:56:44 10° NW 00:03:01 60° NE 00:10:05 10° ESE visible
21 Feb - 01:44:08 10° W 01:50:41 44° SSW 01:57:40 10° SE visible
21 Feb - 03:33:45 10° WSW 03:39:30 24° S 03:45:14 10° SE visible
21 Feb - 05:22:49 10° SW 05:28:42 25° S 05:34:16 10° ESE visible
21 Feb - 07:10:23 10° SW 07:17:17 51° SSE 07:23:24 10° ENE visible
21 Feb - 08:58:19 10° WSW 09:04:35 43° NW 09:10:01 10° NNE daylight
21 Feb - 21:52:39 10° NE 21:54:08 11° NE 21:55:39 10° ENE daylight
21 Feb - 23:34:24 10° NW 23:40:33 60° NE 23:47:31 10° ESE visible
22 Feb - 01:21:48 10° W 01:28:12 44° SSW 01:35:09 10° SE visible
22 Feb - 03:11:20 10° WSW 03:17:01 24° S 03:22:46 10° SE night (unlit)
22 Feb - 05:00:18 10° SW 05:06:14 26° S 05:11:56 10° ESE visible
22 Feb - 06:47:49 10° SW 06:54:50 52° SSE 07:01:06 10° ENE visible
22 Feb - 08:35:45 10° WSW 08:42:09 43° NW 08:47:44 10° NNE visible
22 Feb - 21:30:28 10° NE 21:31:43 11° NE 21:33:00 10° ENE daylight
22 Feb - 23:12:06 10° NW 23:18:05 61° NE 23:24:58 10° ESE visible
23 Feb - 00:59:28 10° W 01:05:44 43° SSW 01:12:35 10° SE visible
23 Feb - 02:48:56 10° WSW 02:54:33 24° S 03:00:18 10° SE night (unlit)
23 Feb - 04:37:47 10° SW 04:43:46 26° S 04:49:34 10° ESE visible
23 Feb - 06:25:16 10° SW 06:32:21 54° SSE 06:38:48 10° ENE visible
23 Feb - 08:13:12 10° WSW 08:19:43 43° NW 08:25:26 10° NNE visible
23 Feb - 21:08:22 10° NE 21:09:19 10° NE 21:10:17 10° ENE daylight
23 Feb - 22:49:48 10° NW 22:55:38 62° NE 23:02:24 10° ESE visible
24 Feb - 00:37:10 10° W 00:43:16 41° SSW 00:50:02 10° SE visible
24 Feb - 02:26:34 10° WSW 02:32:05 24° S 02:37:48 10° SE visible
24 Feb - 04:15:18 10° SW 04:21:18 26° SSE 04:27:11 10° ESE visible
24 Feb - 06:02:43 10° SW 06:09:53 55° SSE 06:16:28 10° ENE visible
24 Feb - 07:50:39 10° WSW 07:57:15 43° NW 08:03:07 10° NNE visible
24 Feb - 20:46:27 10° NE 20:46:56 10° NE 20:47:24 10° NE daylight
24 Feb - 22:27:32 10° NW 22:33:13 62° NE 22:39:51 10° ESE visible
25 Feb - 00:14:52 10° W 00:20:49 40° SSW 00:27:28 10° SE visible
25 Feb - 02:04:13 10° WSW 02:09:37 23° S 02:15:17 10° SE visible
25 Feb - 03:52:50 10° SW 03:58:49 27° SSE 04:04:46 10° ESE night (unlit)
25 Feb - 05:40:11 10° SW 05:47:23 56° SSE 05:54:06 10° ENE visible
25 Feb - 07:28:06 10° WSW 07:34:47 43° NW 07:40:47 10° NNE visible
25 Feb - 22:05:17 10° NW 22:10:48 63° NE 22:17:17 10° ESE visible
25 Feb - 23:52:36 10° W 23:58:23 39° SSW 00:04:53 10° SE visible
26 Feb - 01:41:53 10° SW 01:47:10 23° S 01:52:45 10° SE visible
26 Feb - 03:30:23 10° SW 03:36:21 27° SSE 03:42:20 10° ESE night (unlit)
26 Feb - 05:17:39 10° SW 05:24:53 57° SSE 05:31:45 10° ENE visible
26 Feb - 07:05:33 10° WSW 07:12:17 42° NW 07:18:26 10° NNE visible
26 Feb - 21:43:02 10° NW 21:48:23 64° NE 21:54:44 10° ESE daylight
26 Feb - 23:30:22 10° W 23:35:57 38° SSW 23:42:18 10° SE visible
27 Feb - 01:19:35 10° SW 01:24:43 22° S 01:30:12 10° SE visible
27 Feb - 03:07:57 10° SW 03:13:52 27° SSE 03:19:53 10° ESE night (unlit)
27 Feb - 04:55:09 10° SW 05:02:23 58° SSE 05:09:20 10° ENE night (unlit)
27 Feb - 06:43:02 10° WSW 06:49:48 42° NW 06:56:04 10° NNE visible
27 Feb - 21:20:48 10° NW 21:26:00 64° NE 21:32:11 10° ESE daylight
27 Feb - 23:08:08 10° W 23:13:32 37° SSW 23:19:43 10° SE visible
